Showing default

SJ-29B, 67403

Orbit data source: Space-Track

SJ-29B, 67403 is a payload satellite owned by PLA SSF (CN) in GEO that was launched on Tue, 30 Dec 2025 UTC via a CHANG ZHENG 7A launch vehicle from the Wenchang Satellite Launch Center (WSC). Payload-class satellites include a variety of spacecraft equipped with specific instruments for various scientific and technological missions. These include communications satellites like Starlink; space stations such as the ISS; scientific satellites like the Hubble; Earth observation satellites from companies like Planet Labs, Umbra, and HawkEye 360; GPS; miniature CubeSats for education and research; and military/defense satellites.

Not visible in the next 10 days
Identifier
67403, 2025-315C
Orbit
GEO
Country
Flag of CNCN / PRC
Related business
Manufacturer
SECM
Mission
Operational Defense Technology
Bus & Motor
SJ29, Unknown motor
Mass
~1,000 kg wet, ~600 kg dry
Launch date (UTC)
2025-12-30 (6 months ago)
Launch vehicle
CHANG ZHENG 7A
Launch site
Wenchang Satellite Launch Center (WSC)
Object type
Payload
Rocket body
Debris
Shape & HBR
Box + 2 Pan, 22.5 m
Radar Cross Section
4.045 m²

Expand to show TLE details & history
Last TLE update: 17 hours ago

TLE from 17 hours ago
0 SJ-29B
1 67403U 25315C   26171.12134347 -.00000073  00000-0  00000+0 0  9998
2 67403   3.4052  95.0272 0004057  34.8918 255.3079  1.00270047  1711
Epoch: 2026-06-20T02:54Z
TLE epoch observation values (Epoch: 2026-06-20T02:54:44.075Z)
Latitude
-3.19356°
Longitude
73.2071°
Altitude
35,791.329 km
Speed
3.074 km/s
True Right ascension
01h 40m 55s
True Declination
-3° 11' 25"
Sunlit
Object was in daylight at epoch
Visualization orbit readout
Latitude
Unknown
Longitude
Unknown
Altitude
Unknown
Speed
Unknown
Apparent Right ascension
Unknown
Apparent Declination
Unknown
Sunlit
N/A
Visualization observer readout
Local Sidereal Time
07:13:51
Azimuth
Unknown
Elevation
Unknown
Doppler factor
Unknown
Orbital elements
Apogee altitude
35,805.254 km
Perigee altitude
35,771.04 km
Semi-major axis
42,166.284 km
Eccentricity
0.00041
Inclination
3.4052°
RAAN
95.0272°
Arg. of periapsis
34.8918°
True anomaly
255.26294°
Mean anomaly
255.3079°
Eccentric anomaly
255.28542°
Mean motion
0.25067 °/min
Orbital period
1,436.17 mins
BSTAR
0
Loading maneuver chart data...
Computing Atmospheric mass density...
Loading historical data...
Loading historical data...
Loading historical data...
Loading historical data...
Loading historical data...
Loading historical data...
Loading historical data...
Other satellites on launch #315 in the year 2025 (2025-12-30 UTC)

Documentation

Showing up to 5 results
|